VICTUS HAZE PUMA

Last updated on Thu Aug 20 2026 00:03:39 GMT+0000 (Coordinated Universal Time)

1 69646U 26142A 26231.63716735 .00003967 00000+0 18124-3 0 9991 2 69646 97.3781 128.4557 0009966 156.3674 203.8021 15.21108359 9316
UTC large
Height (km)
Speed (km/s)
/
Latitude / Longitude
Inclination (degrees)
Orbital Period (minutes)
Azimuth
Elevation
Range (km)
Doppler Factor

Next 0 passes for location: London (51.5072 / 0.1276)

No passes found over London.
VICTUS HAZE PUMA